TimeEDT,TemperatureF,Dew PointF,Humidity,Sea Level PressureIn,VisibilityMPH,Wind Direction,Wind SpeedMPH,Gust SpeedMPH,PrecipitationIn,Events,Conditions,WindDirDegrees,DateUTC
12:56 AM,66.9,62.1,84,30.05,10.0,WNW,4.6,-,N/A,,Clear,290,2013-08-20 04:56:00
1:56 AM,66.0,62.1,87,30.04,10.0,West,4.6,-,N/A,,Clear,280,2013-08-20 05:56:00
2:56 AM,64.9,62.1,90,30.04,9.0,NW,5.8,-,N/A,,Clear,310,2013-08-20 06:56:00
3:56 AM,64.9,62.1,90,30.05,9.0,WNW,5.8,-,N/A,,Clear,300,2013-08-20 07:56:00
4:56 AM,63.0,61.0,93,30.05,8.0,NW,5.8,-,N/A,,Clear,320,2013-08-20 08:56:00
5:56 AM,63.0,61.0,93,30.06,7.0,NW,4.6,-,N/A,,Clear,320,2013-08-20 09:56:00
6:56 AM,64.9,61.0,87,30.08,8.0,NW,4.6,-,N/A,,Clear,320,2013-08-20 10:56:00
7:56 AM,69.1,63.0,81,30.11,10.0,NW,6.9,-,N/A,,Clear,310,2013-08-20 11:56:00
8:56 AM,72.0,63.0,73,30.11,10.0,NW,6.9,-,N/A,,Clear,320,2013-08-20 12:56:00
9:56 AM,75.0,64.0,69,30.12,10.0,NW,6.9,-,N/A,,Clear,310,2013-08-20 13:56:00
10:56 AM,78.1,63.0,60,30.12,10.0,NW,6.9,-,N/A,,Clear,310,2013-08-20 14:56:00
11:56 AM,81.0,57.9,45,30.11,10.0,WNW,6.9,-,N/A,,Clear,290,2013-08-20 15:56:00
12:56 PM,82.0,57.9,44,30.11,10.0,NW,10.4,-,N/A,,Partly Cloudy,310,2013-08-20 16:56:00
1:56 PM,84.0,57.9,41,30.09,10.0,WNW,10.4,-,N/A,,Partly Cloudy,300,2013-08-20 17:56:00
2:56 PM,82.9,57.0,41,30.08,10.0,WNW,3.5,-,N/A,,Partly Cloudy,300,2013-08-20 18:56:00
3:56 PM,84.0,57.9,41,30.08,10.0,NW,9.2,-,N/A,,Partly Cloudy,320,2013-08-20 19:56:00
4:56 PM,82.9,57.9,42,30.07,10.0,NW,5.8,-,N/A,,Partly Cloudy,310,2013-08-20 20:56:00
5:56 PM,82.0,59.0,45,30.08,10.0,NW,8.1,-,N/A,,Partly Cloudy,320,2013-08-20 21:56:00
6:56 PM,80.1,60.1,50,30.08,10.0,WNW,3.5,-,N/A,,Partly Cloudy,300,2013-08-20 22:56:00
7:56 PM,73.0,63.0,71,30.09,10.0,Calm,Calm,-,N/A,,Partly Cloudy,0,2013-08-20 23:56:00
8:56 PM,71.1,64.0,78,30.10,10.0,Calm,Calm,-,N/A,,Clear,0,2013-08-21 00:56:00
9:56 PM,70.0,64.0,81,30.11,10.0,Calm,Calm,-,N/A,,Clear,0,2013-08-21 01:56:00
10:56 PM,70.0,64.9,84,30.12,10.0,NW,3.5,-,N/A,,Scattered Clouds,310,2013-08-21 02:56:00
11:56 PM,70.0,66.0,87,30.12,9.0,NW,3.5,-,N/A,,Scattered Clouds,320,2013-08-21 03:56:00